Regional Weather Roundup
Issued by NWS

Home | Current Version | Previous Version | Text Only | Print | Product List | Glossary On
Versions: 1 2 3 4 5 6 7 8 9 10 11 12 13 14 15 16 17 18 19 20 21 22 23 24 25 26 27 28 29 30 31 32 33 34 35 36 37 38 39 40 41 42 43 44 45 46 47 48 49 50
000
ASUS44 KBMX 280910
RWRAL

ALABAMA REGIONAL WEATHER ROUNDUP
NATIONAL WEATHER SERVICE BIRMINGHAM AL
400 AM CDT WED JUN 28 2017

NOTE: "FAIR" INDICATES FEW OR NO CLOUDS BELOW 12,000 FEET
WITH NO SIGNIFICANT WEATHER AND/OR OBSTRUCTIONS TO VISIBILITY.

THE REMARK "TC" DENOTES TEMPERATURE IN DEGREES CELSIUS.

ALZ001>011-014-016>018-020-281000-
NORTH ALABAMA

CITY           SKY/WX    TMP DP  RH WIND       PRES   REMARKS
MUSCLE SHOALS  MOCLDY    62  59  90 CALM      30.09S
HUNTSVILLE     CLOUDY    64  60  87 E6        30.09S
DECATUR        PTCLDY    60  59  96 CALM      30.09S
HALEYVILLE     NOT AVBL
GADSDEN        PTCLDY    60  59  96 CALM      30.11R
$$

ALZ012-013-022-023-030>036-040>044-281000-
WEST CENTRAL ALABAMA

CITY           SKY/WX    TMP DP  RH WIND       PRES   REMARKS
TUSCALOOSA     CLEAR     66  66 100 CALM      30.05S
$$

ALZ015-024>027-033>036-040>044-281000-
CENTRAL ALABAMA

CITY           SKY/WX    TMP DP  RH WIND       PRES   REMARKS
BIRMINGHAM     CLEAR     70  57  63 NE6       30.10S
MONTGOMERY     PTCLDY    72  65  78 NE3       30.05S
SHELBY CO ARPT PTCLDY    69  62  78 VRB3      30.08S
MAXWELL AFB    NOT AVBL
GREENVILLE     FAIR      69  63  81 NE3       30.04S
$$

ALZ019-021-028-029-037-038-045>048-281000-
EAST CENTRAL ALABAMA

CITY           SKY/WX    TMP DP  RH WIND       PRES   REMARKS
ANNISTON       CLEAR     64  58  80 N3        30.10R
ALEXANDER CITY CLOUDY    65  61  87 CALM      30.09S
AUBURN         PTCLDY    69  58  67 N12       30.09F
$$

ALZ051>064-281000-
SOUTHWEST ALABAMA

CITY           SKY/WX    TMP DP  RH WIND       PRES   REMARKS
MOBILE         PTCLDY    73  69  87 NE5       30.01S
BROOKLEY FIELD MOCLDY    77  71  82 NE3       30.02R
EVERGREEN      CLOUDY    66  65  96 CALM      30.03S FOG
$$

ALZ049-050-065>069-281000-
SOUTHEAST ALABAMA

CITY           SKY/WX    TMP DP  RH WIND       PRES   REMARKS
DOTHAN         MOCLDY    71  70  96 NE3       30.07S
OZARK          PTCLDY    70  67  93 NE5       30.03S
TROY           CLOUDY    68  68 100 CALM      30.05F
EUFAULA        FAIR      68  66  93 CALM      30.05R
$$



USA.gov is the U.S. government's official web portal to all federal, state and local government web resources and services.